Time,TemperatureF,DewpointF,PressureIn,WindDirection,WindDirectionDegrees,WindSpeedMPH,WindSpeedGustMPH,Humidity,HourlyPrecipIn,Conditions,Clouds,dailyrainin,SoftwareType,DateUTC
2013-01-18 00:05:00,39.2,6.3,30.25,WSW,256,0.0,0.0,25,0.00,,,0.00,Wunderground v.1.15,2013-01-18 08:05:00,
2013-01-18 00:15:00,39.2,6.3,30.25,WSW,256,0.0,0.0,25,0.00,,,0.00,Wunderground v.1.15,2013-01-18 08:15:00,
2013-01-18 00:25:00,39.3,6.3,30.25,WSW,256,0.0,0.0,25,0.00,,,0.00,Wunderground v.1.15,2013-01-18 08:25:00,
2013-01-18 00:35:00,38.8,5.9,30.25,WSW,256,0.0,0.0,25,0.00,,,0.00,Wunderground v.1.15,2013-01-18 08:35:00,
2013-01-18 00:40:00,38.2,5.4,30.25,WSW,256,0.0,0.0,25,0.00,,,0.00,Wunderground v.1.15,2013-01-18 08:40:00,
2013-01-18 00:50:00,37.9,6.0,30.26,WSW,256,0.0,0.0,26,0.00,,,0.00,Wunderground v.1.15,2013-01-18 08:50:00,
2013-01-18 00:55:00,37.8,5.9,30.26,WSW,256,0.0,0.0,26,0.00,,,0.00,Wunderground v.1.15,2013-01-18 08:55:00,
2013-01-18 01:05:00,38.2,5.4,30.26,WSW,256,0.0,0.0,25,0.00,,,0.00,Wunderground v.1.15,2013-01-18 09:05:00,
2013-01-18 01:15:00,38.2,6.3,30.27,WSW,256,0.0,0.0,26,0.00,,,0.00,Wunderground v.1.15,2013-01-18 09:15:00,
2013-01-18 01:20:00,37.9,6.0,30.27,WSW,256,0.0,0.0,26,0.00,,,0.00,Wunderground v.1.15,2013-01-18 09:20:00,
2013-01-18 01:30:00,37.8,5.1,30.27,WSW,256,0.0,0.0,25,0.00,,,0.00,Wunderground v.1.15,2013-01-18 09:30:00,
2013-01-18 01:35:00,37.6,5.7,30.27,WSW,256,0.0,0.0,26,0.00,,,0.00,Wunderground v.1.15,2013-01-18 09:35:00,
2013-01-18 01:45:00,37.3,5.5,30.26,WSW,256,0.0,0.0,26,0.00,,,0.00,Wunderground v.1.15,2013-01-18 09:45:00,
2013-01-18 01:55:00,37.3,5.5,30.26,WSW,256,0.0,0.0,26,0.00,,,0.00,Wunderground v.1.15,2013-01-18 09:55:00,
2013-01-18 02:00:00,37.0,5.2,30.27,WSW,256,0.0,0.0,26,0.00,,,0.00,Wunderground v.1.15,2013-01-18 10:00:00,
2013-01-18 02:05:00,36.5,5.6,30.27,WSW,256,0.0,0.0,27,0.00,,,0.00,Wunderground v.1.15,2013-01-18 10:05:00,
2013-01-18 02:15:00,36.0,5.2,30.27,WSW,256,0.0,0.0,27,0.00,,,0.00,Wunderground v.1.15,2013-01-18 10:15:00,
2013-01-18 02:20:00,36.5,5.6,30.27,WSW,256,0.0,0.0,27,0.00,,,0.00,Wunderground v.1.15,2013-01-18 10:20:00,
2013-01-18 02:30:00,37.2,4.5,30.27,NNW,333,0.0,0.0,25,0.00,,,0.00,Wunderground v.1.15,2013-01-18 10:30:00,
2013-01-18 02:35:00,36.5,4.8,30.27,NNW,333,0.0,0.0,26,0.00,,,0.00,Wunderground v.1.15,2013-01-18 10:35:00,
2013-01-18 02:45:00,36.0,5.2,30.26,NNW,333,0.0,0.0,27,0.00,,,0.00,Wunderground v.1.15,2013-01-18 10:45:00,
2013-01-18 02:55:00,35.6,4.8,30.26,NNW,333,0.0,0.0,27,0.00,,,0.00,Wunderground v.1.15,2013-01-18 10:55:00,
2013-01-18 03:00:00,35.3,4.6,30.26,NNW,333,0.0,0.0,27,0.00,,,0.00,Wunderground v.1.15,2013-01-18 11:00:00,
2013-01-18 03:05:00,35.3,5.4,30.26,NNW,333,0.0,0.0,28,0.00,,,0.00,Wunderground v.1.15,2013-01-18 11:05:00,
2013-01-18 03:15:00,35.2,4.5,30.25,NNW,333,0.0,0.0,27,0.00,,,0.00,Wunderground v.1.15,2013-01-18 11:15:00,
2013-01-18 03:20:00,35.2,4.5,30.25,NNW,333,0.0,0.0,27,0.00,,,0.00,Wunderground v.1.15,2013-01-18 11:20:00,
2013-01-18 03:25:00,35.3,4.6,30.25,NNW,333,0.0,0.0,27,0.00,,,0.00,Wunderground v.1.15,2013-01-18 11:25:00,
2013-01-18 03:30:00,35.8,5.0,30.25,NNW,333,0.0,0.0,27,0.00,,,0.00,Wunderground v.1.15,2013-01-18 11:30:00,
2013-01-18 03:40:00,36.6,4.9,30.25,NNW,333,0.0,0.0,26,0.00,,,0.00,Wunderground v.1.15,2013-01-18 11:40:00,
2013-01-18 03:45:00,36.3,4.6,30.25,NW,326,0.0,0.0,26,0.00,,,0.00,Wunderground v.1.15,2013-01-18 11:45:00,
2013-01-18 03:55:00,36.0,4.4,30.25,NW,326,0.0,0.0,26,0.00,,,0.00,Wunderground v.1.15,2013-01-18 11:55:00,
2013-01-18 04:00:00,36.5,3.9,30.25,NW,306,0.0,0.0,25,0.00,,,0.00,Wunderground v.1.15,2013-01-18 12:00:00,
2013-01-18 04:05:00,36.5,4.8,30.25,NW,306,0.0,0.0,26,0.00,,,0.00,Wunderground v.1.15,2013-01-18 12:05:00,
2013-01-18 04:15:00,37.6,4.0,30.25,NW,306,0.0,0.0,24,0.00,,,0.00,Wunderground v.1.15,2013-01-18 12:15:00,
2013-01-18 04:20:00,37.8,4.2,30.25,NW,306,0.0,0.0,24,0.00,,,0.00,Wunderground v.1.15,2013-01-18 12:20:00,
2013-01-18 04:30:00,36.9,4.3,30.25,NW,306,0.0,0.0,25,0.00,,,0.00,Wunderground v.1.15,2013-01-18 12:30:00,
2013-01-18 04:35:00,36.6,4.0,30.25,NW,306,0.0,0.0,25,0.00,,,0.00,Wunderground v.1.15,2013-01-18 12:35:00,
2013-01-18 04:45:00,36.0,3.5,30.25,NW,306,0.0,0.0,25,0.00,,,0.00,Wunderground v.1.15,2013-01-18 12:45:00,
2013-01-18 04:50:00,35.9,3.4,30.25,NW,306,0.0,0.0,25,0.00,,,0.00,Wunderground v.1.15,2013-01-18 12:50:00,
2013-01-18 05:00:00,35.5,3.1,30.25,NW,306,0.0,0.0,25,0.00,,,0.00,Wunderground v.1.15,2013-01-18 13:00:00,
2013-01-18 05:05:00,35.5,2.2,30.25,NW,306,0.0,0.0,24,0.00,,,0.00,Wunderground v.1.15,2013-01-18 13:05:00,
2013-01-18 05:15:00,35.0,2.7,30.25,NW,306,0.0,0.0,25,0.00,,,0.00,Wunderground v.1.15,2013-01-18 13:15:00,
2013-01-18 05:20:00,34.9,3.4,30.25,NW,306,0.0,0.0,26,0.00,,,0.00,Wunderground v.1.15,2013-01-18 13:20:00,
2013-01-18 05:25:00,34.9,2.6,30.25,NW,306,0.0,0.0,25,0.00,,,0.00,Wunderground v.1.15,2013-01-18 13:25:00,
2013-01-18 05:35:00,35.3,3.8,30.25,NW,306,0.0,0.0,26,0.00,,,0.00,Wunderground v.1.15,2013-01-18 13:35:00,
2013-01-18 05:40:00,35.5,3.1,30.25,NW,306,0.0,0.0,25,0.00,,,0.00,Wunderground v.1.15,2013-01-18 13:40:00,
2013-01-18 05:50:00,36.2,3.7,30.25,West,277,0.0,0.0,25,0.00,,,0.00,Wunderground v.1.15,2013-01-18 13:50:00,
2013-01-18 05:55:00,36.0,3.5,30.25,West,277,0.0,0.0,25,0.00,,,0.00,Wunderground v.1.15,2013-01-18 13:55:00,
2013-01-18 06:05:00,36.2,3.7,30.25,West,277,0.0,0.0,25,0.00,,,0.00,Wunderground v.1.15,2013-01-18 14:05:00,
2013-01-18 06:15:00,35.9,3.4,30.25,West,277,0.0,0.0,25,0.00,,,0.00,Wunderground v.1.15,2013-01-18 14:15:00,
2013-01-18 06:20:00,35.9,3.4,30.25,West,277,0.0,0.0,25,0.00,,,0.00,Wunderground v.1.15,2013-01-18 14:20:00,
2013-01-18 06:25:00,35.6,3.2,30.25,West,277,0.0,0.0,25,0.00,,,0.00,Wunderground v.1.15,2013-01-18 14:25:00,
2013-01-18 06:35:00,34.6,3.2,30.25,West,277,0.0,0.0,26,0.00,,,0.00,Wunderground v.1.15,2013-01-18 14:35:00,
2013-01-18 06:40:00,34.4,3.0,30.25,West,277,0.0,0.0,26,0.00,,,0.00,Wunderground v.1.15,2013-01-18 14:40:00,
2013-01-18 06:45:00,34.4,3.0,30.26,West,277,0.0,0.0,26,0.00,,,0.00,Wunderground v.1.15,2013-01-18 14:45:00,
2013-01-18 06:50:00,34.6,3.2,30.26,West,277,0.0,0.0,26,0.00,,,0.00,Wunderground v.1.15,2013-01-18 14:50:00,
2013-01-18 07:00:00,34.4,3.0,30.26,West,277,0.0,0.0,26,0.00,,,0.00,Wunderground v.1.15,2013-01-18 15:00:00,
2013-01-18 07:05:00,34.3,2.9,30.26,West,277,0.0,0.0,26,0.00,,,0.00,Wunderground v.1.15,2013-01-18 15:05:00,
2013-01-18 07:15:00,34.7,3.2,30.26,West,277,0.0,0.0,26,0.00,,,0.00,Wunderground v.1.15,2013-01-18 15:15:00,
2013-01-18 07:20:00,34.6,3.2,30.26,West,277,0.0,0.0,26,0.00,,,0.00,Wunderground v.1.15,2013-01-18 15:20:00,
2013-01-18 07:25:00,34.3,2.9,30.26,West,277,0.0,0.0,26,0.00,,,0.00,Wunderground v.1.15,2013-01-18 15:25:00,
2013-01-18 07:35:00,34.9,3.4,30.26,West,277,0.0,0.0,26,0.00,,,0.00,Wunderground v.1.15,2013-01-18 15:35:00,
2013-01-18 07:40:00,35.6,4.0,30.26,West,277,0.0,0.0,26,0.00,,,0.00,Wunderground v.1.15,2013-01-18 15:40:00,
2013-01-18 07:45:00,36.3,3.8,30.27,West,277,0.0,0.0,25,0.00,,,0.00,Wunderground v.1.15,2013-01-18 15:45:00,
2013-01-18 07:50:00,36.9,4.3,30.27,West,277,0.0,0.0,25,0.00,,,0.00,Wunderground v.1.15,2013-01-18 15:50:00,
2013-01-18 08:00:00,38.2,4.5,30.27,West,277,0.0,0.0,24,0.00,,,0.00,Wunderground v.1.15,2013-01-18 16:00:00,
2013-01-18 08:05:00,38.9,5.1,30.27,West,277,0.0,0.0,24,0.00,,,0.00,Wunderground v.1.15,2013-01-18 16:05:00,
2013-01-18 08:15:00,39.8,5.9,30.28,West,277,0.0,0.0,24,0.00,,,0.00,Wunderground v.1.15,2013-01-18 16:15:00,
2013-01-18 08:25:00,41.1,5.1,30.28,NNW,342,0.0,0.0,22,0.00,,,0.00,Wunderground v.1.15,2013-01-18 16:25:00,
2013-01-18 08:35:00,37.6,4.0,30.29,NNW,342,0.0,0.0,24,0.00,,,0.00,Wunderground v.1.15,2013-01-18 16:35:00,
2013-01-18 08:40:00,37.2,3.7,30.29,NNW,342,0.0,0.0,24,0.00,,,0.00,Wunderground v.1.15,2013-01-18 16:40:00,
2013-01-18 08:45:00,37.3,3.7,30.29,NNW,342,0.0,0.0,24,0.00,,,0.00,Wunderground v.1.15,2013-01-18 16:45:00,
2013-01-18 08:55:00,38.9,4.2,30.29,NNW,342,0.0,0.0,23,0.00,,,0.00,Wunderground v.1.15,2013-01-18 16:55:00,
2013-01-18 09:00:00,39.5,4.7,30.30,NNW,342,0.0,0.0,23,0.00,,,0.00,Wunderground v.1.15,2013-01-18 17:00:00,
2013-01-18 09:05:00,40.2,5.3,30.30,NNW,342,0.0,0.0,23,0.00,,,0.00,Wunderground v.1.15,2013-01-18 17:05:00,
2013-01-18 09:15:00,42.2,6.0,30.30,NNW,343,0.0,0.0,22,0.00,,,0.00,Wunderground v.1.15,2013-01-18 17:15:00,
2013-01-18 09:20:00,42.9,5.6,30.30,NNW,344,0.0,0.0,21,0.00,,,0.00,Wunderground v.1.15,2013-01-18 17:20:00,
2013-01-18 09:30:00,43.8,6.3,30.30,NNW,344,0.0,0.0,21,0.00,,,0.00,Wunderground v.1.15,2013-01-18 17:30:00,
2013-01-18 09:40:00,45.5,5.6,30.30,NNW,344,0.0,0.0,19,0.00,,,0.00,Wunderground v.1.15,2013-01-18 17:40:00,
2013-01-18 09:45:00,46.5,6.4,30.30,NNW,344,0.0,0.0,19,0.00,,,0.00,Wunderground v.1.15,2013-01-18 17:45:00,
2013-01-18 09:55:00,48.2,6.6,30.30,NNW,344,0.0,0.0,18,0.00,,,0.00,Wunderground v.1.15,2013-01-18 17:55:00,
2013-01-18 10:05:00,49.5,6.4,30.30,NNE,30,0.0,0.0,17,0.00,,,0.00,Wunderground v.1.15,2013-01-18 18:05:00,
2013-01-18 10:15:00,50.7,7.4,30.30,NNE,25,0.0,0.0,17,0.00,,,0.00,Wunderground v.1.15,2013-01-18 18:15:00,
2013-01-18 10:25:00,51.9,7.0,30.30,NE,44,0.0,0.0,16,0.00,,,0.00,Wunderground v.1.15,2013-01-18 18:25:00,
2013-01-18 10:30:00,52.3,7.4,30.29,NE,44,0.0,0.0,16,0.00,,,0.00,Wunderground v.1.15,2013-01-18 18:30:00,
2013-01-18 10:40:00,53.3,6.7,30.29,WNW,295,0.0,0.0,15,0.00,,,0.00,Wunderground v.1.15,2013-01-18 18:40:00,
2013-01-18 10:50:00,53.6,9.8,30.29,WNW,290,0.0,0.0,17,0.00,,,0.00,Wunderground v.1.15,2013-01-18 18:50:00,
2013-01-18 11:00:00,53.8,7.1,30.28,WNW,294,0.0,0.0,15,0.00,,,0.00,Wunderground v.1.15,2013-01-18 19:00:00,
2013-01-18 11:05:00,54.1,8.8,30.28,NNW,331,0.0,0.0,16,0.00,,,0.00,Wunderground v.1.15,2013-01-18 19:05:00,
2013-01-18 11:15:00,54.5,9.1,30.27,NW,316,0.0,0.0,16,0.00,,,0.00,Wunderground v.1.15,2013-01-18 19:15:00,
2013-01-18 11:20:00,54.5,7.7,30.27,NW,326,0.0,0.0,15,0.00,,,0.00,Wunderground v.1.15,2013-01-18 19:20:00,
2013-01-18 11:30:00,54.8,9.4,30.26,NNW,327,0.0,0.0,16,0.00,,,0.00,Wunderground v.1.15,2013-01-18 19:30:00,
2013-01-18 11:35:00,55.1,8.2,30.26,North,349,0.0,0.0,15,0.00,,,0.00,Wunderground v.1.15,2013-01-18 19:35:00,
2013-01-18 11:45:00,54.8,8.0,30.25,North,355,0.0,0.0,15,0.00,,,0.00,Wunderground v.1.15,2013-01-18 19:45:00,
2013-01-18 11:55:00,55.4,8.4,30.25,NNE,23,0.0,0.0,15,0.00,,,0.00,Wunderground v.1.15,2013-01-18 19:55:00,
2013-01-18 12:00:00,55.7,8.7,30.24,NNE,22,0.0,0.0,15,0.00,,,0.00,Wunderground v.1.15,2013-01-18 20:00:00,
2013-01-18 12:05:00,56.0,10.4,30.24,ENE,70,0.0,0.0,16,0.00,,,0.00,Wunderground v.1.15,2013-01-18 20:05:00,
2013-01-18 12:15:00,56.6,9.4,30.23,NNE,32,0.0,0.0,15,0.00,,,0.00,Wunderground v.1.15,2013-01-18 20:15:00,
2013-01-18 12:25:00,56.9,9.6,30.23,NE,46,0.0,0.0,15,0.00,,,0.00,Wunderground v.1.15,2013-01-18 20:25:00,
2013-01-18 12:30:00,57.2,9.9,30.22,NE,46,0.0,0.0,15,0.00,,,0.00,Wunderground v.1.15,2013-01-18 20:30:00,
2013-01-18 12:35:00,57.5,8.6,30.22,NE,38,0.0,0.0,14,0.00,,,0.00,Wunderground v.1.15,2013-01-18 20:35:00,
2013-01-18 12:45:00,58.0,9.0,30.21,NNE,28,0.0,0.0,14,0.00,,,0.00,Wunderground v.1.15,2013-01-18 20:45:00,
2013-01-18 12:50:00,58.4,9.3,30.21,NE,43,0.0,0.0,14,0.00,,,0.00,Wunderground v.1.15,2013-01-18 20:50:00,
2013-01-18 13:00:00,58.9,8.1,30.20,NNE,19,0.0,0.0,13,0.00,,,0.00,Wunderground v.1.15,2013-01-18 21:00:00,
2013-01-18 13:05:00,59.2,8.3,30.20,ENE,70,0.0,1.0,13,0.00,,,0.00,Wunderground v.1.15,2013-01-18 21:05:00,
2013-01-18 13:15:00,59.3,6.6,30.20,ENE,64,1.0,1.0,12,0.00,,,0.00,Wunderground v.1.15,2013-01-18 21:15:00,
2013-01-18 13:20:00,59.5,8.5,30.20,ENE,63,1.0,1.0,13,0.00,,,0.00,Wunderground v.1.15,2013-01-18 21:20:00,
2013-01-18 13:25:00,59.9,8.8,30.20,ENE,69,1.0,1.0,13,0.00,,,0.00,Wunderground v.1.15,2013-01-18 21:25:00,
2013-01-18 13:35:00,59.8,7.0,30.19,NE,49,2.0,2.0,12,0.00,,,0.00,Wunderground v.1.15,2013-01-18 21:35:00,
2013-01-18 13:40:00,59.3,6.6,30.19,ENE,58,2.0,2.0,12,0.00,,,0.00,Wunderground v.1.15,2013-01-18 21:40:00,
2013-01-18 13:45:00,59.5,6.8,30.19,ENE,61,2.0,5.0,12,0.00,,,0.00,Wunderground v.1.15,2013-01-18 21:45:00,
2013-01-18 13:55:00,59.5,6.8,30.19,NE,50,3.0,5.0,12,0.00,,,0.00,Wunderground v.1.15,2013-01-18 21:55:00,
2013-01-18 14:05:00,59.8,7.0,30.19,NE,49,1.0,4.0,12,0.00,,,0.00,Wunderground v.1.15,2013-01-18 22:05:00,
2013-01-18 14:15:00,59.6,6.8,30.18,ENE,68,2.0,2.0,12,0.00,,,0.00,Wunderground v.1.15,2013-01-18 22:15:00,
2013-01-18 14:25:00,59.9,7.1,30.18,ENE,71,1.0,1.0,12,0.00,,,0.00,Wunderground v.1.15,2013-01-18 22:25:00,
2013-01-18 14:30:00,60.1,7.2,30.18,NNE,27,1.0,1.0,12,0.00,,,0.00,Wunderground v.1.15,2013-01-18 22:30:00,
2013-01-18 14:40:00,60.5,7.5,30.18,ENE,61,0.0,0.0,12,0.00,,,0.00,Wunderground v.1.15,2013-01-18 22:40:00,
2013-01-18 14:50:00,60.4,7.5,30.17,ENE,65,1.0,3.0,12,0.00,,,0.00,Wunderground v.1.15,2013-01-18 22:50:00,
2013-01-18 14:55:00,60.1,7.2,30.17,ENE,63,1.0,3.0,12,0.00,,,0.00,Wunderground v.1.15,2013-01-18 22:55:00,
2013-01-18 15:05:00,60.2,7.3,30.17,ENE,63,1.0,1.0,12,0.00,,,0.00,Wunderground v.1.15,2013-01-18 23:05:00,
2013-01-18 15:15:00,60.2,7.3,30.17,ENE,65,1.0,1.0,12,0.00,,,0.00,Wunderground v.1.15,2013-01-18 23:15:00,
2013-01-18 15:20:00,60.4,7.5,30.17,ENE,69,1.0,1.0,12,0.00,,,0.00,Wunderground v.1.15,2013-01-18 23:20:00,
2013-01-18 15:30:00,60.2,7.3,30.17,ENE,61,1.0,2.0,12,0.00,,,0.00,Wunderground v.1.15,2013-01-18 23:30:00,
2013-01-18 15:40:00,60.2,7.3,30.17,ENE,64,0.0,2.0,12,0.00,,,0.00,Wunderground v.1.15,2013-01-18 23:40:00,
2013-01-18 15:45:00,60.1,7.2,30.17,ENE,60,0.0,0.0,12,0.00,,,0.00,Wunderground v.1.15,2013-01-18 23:45:00,
2013-01-18 15:55:00,60.1,9.0,30.17,ENE,62,0.0,0.0,13,0.00,,,0.00,Wunderground v.1.15,2013-01-18 23:55:00,
2013-01-18 16:00:00,60.1,9.0,30.17,ENE,62,0.0,0.0,13,0.00,,,0.00,Wunderground v.1.15,2013-01-19 00:00:00,
2013-01-18 16:10:00,59.8,8.8,30.17,ENE,63,0.0,0.0,13,0.00,,,0.00,Wunderground v.1.15,2013-01-19 00:10:00,
2013-01-18 16:20:00,59.8,8.8,30.17,ENE,63,0.0,0.0,13,0.00,,,0.00,Wunderground v.1.15,2013-01-19 00:20:00,
2013-01-18 16:25:00,59.8,8.8,30.17,ENE,63,0.0,0.0,13,0.00,,,0.00,Wunderground v.1.15,2013-01-19 00:25:00,
2013-01-18 16:35:00,59.2,8.3,30.17,ENE,63,0.0,0.0,13,0.00,,,0.00,Wunderground v.1.15,2013-01-19 00:35:00,
2013-01-18 16:45:00,58.6,7.8,30.17,ENE,63,0.0,0.0,13,0.00,,,0.00,Wunderground v.1.15,2013-01-19 00:45:00,
2013-01-18 16:55:00,57.6,8.7,30.17,ENE,63,0.0,0.0,14,0.00,,,0.00,Wunderground v.1.15,2013-01-19 00:55:00,
2013-01-18 17:00:00,57.0,8.2,30.18,ENE,63,0.0,0.0,14,0.00,,,0.00,Wunderground v.1.15,2013-01-19 01:00:00,
2013-01-18 17:05:00,56.0,8.9,30.18,ENE,63,0.0,0.0,15,0.00,,,0.00,Wunderground v.1.15,2013-01-19 01:05:00,
2013-01-18 17:15:00,53.9,7.2,30.18,ENE,63,0.0,0.0,15,0.00,,,0.00,Wunderground v.1.15,2013-01-19 01:15:00,
2013-01-18 17:25:00,52.2,5.9,30.18,ENE,63,0.0,0.0,15,0.00,,,0.00,Wunderground v.1.15,2013-01-19 01:25:00,
2013-01-18 17:35:00,51.1,6.4,30.19,ENE,63,0.0,0.0,16,0.00,,,0.00,Wunderground v.1.15,2013-01-19 01:35:00,
2013-01-18 17:40:00,50.7,6.1,30.19,ENE,63,0.0,0.0,16,0.00,,,0.00,Wunderground v.1.15,2013-01-19 01:40:00,
2013-01-18 17:50:00,50.1,6.9,30.19,ENE,63,0.0,0.0,17,0.00,,,0.00,Wunderground v.1.15,2013-01-19 01:50:00,
2013-01-18 17:55:00,49.8,6.7,30.19,ENE,63,0.0,0.0,17,0.00,,,0.00,Wunderground v.1.15,2013-01-19 01:55:00,
2013-01-18 18:00:00,49.4,6.3,30.19,ENE,63,0.0,0.0,17,0.00,,,0.00,Wunderground v.1.15,2013-01-19 02:00:00,
2013-01-18 18:05:00,48.9,5.9,30.19,ENE,63,0.0,0.0,17,0.00,,,0.00,Wunderground v.1.15,2013-01-19 02:05:00,
2013-01-18 18:15:00,48.0,5.2,30.19,ENE,63,0.0,0.0,17,0.00,,,0.00,Wunderground v.1.15,2013-01-19 02:15:00,
2013-01-18 18:25:00,47.1,5.7,30.19,ENE,63,0.0,0.0,18,0.00,,,0.00,Wunderground v.1.15,2013-01-19 02:25:00,
2013-01-18 18:30:00,46.5,6.4,30.20,ENE,63,0.0,0.0,19,0.00,,,0.00,Wunderground v.1.15,2013-01-19 02:30:00,
2013-01-18 18:40:00,46.1,6.0,30.20,ENE,63,0.0,0.0,19,0.00,,,0.00,Wunderground v.1.15,2013-01-19 02:40:00,
2013-01-18 18:45:00,46.1,6.0,30.20,ENE,63,0.0,0.0,19,0.00,,,0.00,Wunderground v.1.15,2013-01-19 02:45:00,
2013-01-18 18:55:00,45.8,5.8,30.20,ENE,63,0.0,0.0,19,0.00,,,0.00,Wunderground v.1.15,2013-01-19 02:55:00,
2013-01-18 19:05:00,45.4,5.5,30.20,ENE,63,0.0,0.0,19,0.00,,,0.00,Wunderground v.1.15,2013-01-19 03:05:00,
2013-01-18 19:15:00,44.8,5.0,30.21,ENE,63,0.0,0.0,19,0.00,,,0.00,Wunderground v.1.15,2013-01-19 03:15:00,
2013-01-18 19:20:00,44.3,5.7,30.21,ENE,63,0.0,0.0,20,0.00,,,0.00,Wunderground v.1.15,2013-01-19 03:20:00,
2013-01-18 19:30:00,43.9,5.3,30.21,ENE,63,0.0,0.0,20,0.00,,,0.00,Wunderground v.1.15,2013-01-19 03:30:00,
2013-01-18 19:40:00,43.5,5.0,30.21,ENE,63,0.0,0.0,20,0.00,,,0.00,Wunderground v.1.15,2013-01-19 03:40:00,
2013-01-18 19:45:00,43.2,5.8,30.21,ENE,63,0.0,0.0,21,0.00,,,0.00,Wunderground v.1.15,2013-01-19 03:45:00,
2013-01-18 19:50:00,42.8,5.5,30.21,ENE,63,0.0,0.0,21,0.00,,,0.00,Wunderground v.1.15,2013-01-19 03:50:00,
2013-01-18 20:00:00,42.1,5.9,30.22,ENE,63,0.0,0.0,22,0.00,,,0.00,Wunderground v.1.15,2013-01-19 04:00:00,
2013-01-18 20:05:00,41.8,5.7,30.22,ENE,63,0.0,0.0,22,0.00,,,0.00,Wunderground v.1.15,2013-01-19 04:05:00,
2013-01-18 20:10:00,42.1,5.9,30.22,ENE,63,0.0,0.0,22,0.00,,,0.00,Wunderground v.1.15,2013-01-19 04:10:00,
2013-01-18 20:20:00,42.1,5.9,30.22,ENE,63,0.0,0.0,22,0.00,,,0.00,Wunderground v.1.15,2013-01-19 04:20:00,
2013-01-18 20:25:00,41.8,5.7,30.22,ENE,63,0.0,0.0,22,0.00,,,0.00,Wunderground v.1.15,2013-01-19 04:25:00,
2013-01-18 20:35:00,42.3,5.1,30.22,ENE,63,0.0,0.0,21,0.00,,,0.00,Wunderground v.1.15,2013-01-19 04:35:00,
2013-01-18 20:45:00,42.2,6.0,30.22,ENE,63,0.0,0.0,22,0.00,,,0.00,Wunderground v.1.15,2013-01-19 04:45:00,
2013-01-18 20:50:00,42.2,6.0,30.22,ENE,63,0.0,0.0,22,0.00,,,0.00,Wunderground v.1.15,2013-01-19 04:50:00,
2013-01-18 21:00:00,42.1,5.9,30.23,ENE,63,0.0,0.0,22,0.00,,,0.00,Wunderground v.1.15,2013-01-19 05:00:00,
2013-01-18 21:05:00,42.2,5.0,30.23,ENE,63,0.0,0.0,21,0.00,,,0.00,Wunderground v.1.15,2013-01-19 05:05:00,
2013-01-18 21:15:00,42.3,5.1,30.23,ENE,63,0.0,0.0,21,0.00,,,0.00,Wunderground v.1.15,2013-01-19 05:15:00,
2013-01-18 21:20:00,42.2,5.0,30.23,ENE,63,0.0,0.0,21,0.00,,,0.00,Wunderground v.1.15,2013-01-19 05:20:00,
2013-01-18 21:25:00,42.1,5.9,30.23,ENE,63,0.0,0.0,22,0.00,,,0.00,Wunderground v.1.15,2013-01-19 05:25:00,
2013-01-18 21:30:00,41.9,5.8,30.23,ENE,63,0.0,0.0,22,0.00,,,0.00,Wunderground v.1.15,2013-01-19 05:30:00,
2013-01-18 21:35:00,41.9,5.8,30.23,ENE,63,0.0,0.0,22,0.00,,,0.00,Wunderground v.1.15,2013-01-19 05:35:00,
2013-01-18 21:45:00,42.1,5.9,30.23,ENE,63,0.0,0.0,22,0.00,,,0.00,Wunderground v.1.15,2013-01-19 05:45:00,
2013-01-18 21:50:00,41.9,5.8,30.23,ENE,63,0.0,0.0,22,0.00,,,0.00,Wunderground v.1.15,2013-01-19 05:50:00,
2013-01-18 21:55:00,41.8,5.7,30.23,ENE,63,0.0,0.0,22,0.00,,,0.00,Wunderground v.1.15,2013-01-19 05:55:00,
2013-01-18 22:05:00,41.6,5.5,30.23,ENE,63,0.0,0.0,22,0.00,,,0.00,Wunderground v.1.15,2013-01-19 06:05:00,
2013-01-18 22:10:00,41.3,5.2,30.23,ENE,63,0.0,0.0,22,0.00,,,0.00,Wunderground v.1.15,2013-01-19 06:10:00,
2013-01-18 22:20:00,41.5,4.4,30.23,ENE,63,0.0,0.0,21,0.00,,,0.00,Wunderground v.1.15,2013-01-19 06:20:00,
2013-01-18 22:30:00,41.9,5.8,30.23,ENE,63,0.0,0.0,22,0.00,,,0.00,Wunderground v.1.15,2013-01-19 06:30:00,
2013-01-18 22:35:00,41.9,4.7,30.23,ENE,63,0.0,0.0,21,0.00,,,0.00,Wunderground v.1.15,2013-01-19 06:35:00,
2013-01-18 22:45:00,41.9,4.7,30.23,ENE,63,0.0,0.0,21,0.00,,,0.00,Wunderground v.1.15,2013-01-19 06:45:00,
2013-01-18 22:55:00,41.8,4.6,30.23,ENE,63,0.0,0.0,21,0.00,,,0.00,Wunderground v.1.15,2013-01-19 06:55:00,
2013-01-18 23:00:00,41.6,4.5,30.23,ENE,63,0.0,0.0,21,0.00,,,0.00,Wunderground v.1.15,2013-01-19 07:00:00,
2013-01-18 23:05:00,41.3,5.2,30.23,ENE,63,0.0,0.0,22,0.00,,,0.00,Wunderground v.1.15,2013-01-19 07:05:00,
2013-01-18 23:15:00,40.6,4.7,30.23,ENE,63,0.0,0.0,22,0.00,,,0.00,Wunderground v.1.15,2013-01-19 07:15:00,
2013-01-18 23:25:00,41.2,5.2,30.23,ENE,63,0.0,0.0,22,0.00,,,0.00,Wunderground v.1.15,2013-01-19 07:25:00,
2013-01-18 23:35:00,41.2,5.2,30.23,ENE,63,0.0,0.0,22,0.00,,,0.00,Wunderground v.1.15,2013-01-19 07:35:00,
2013-01-18 23:40:00,41.3,5.2,30.23,ENE,63,0.0,0.0,22,0.00,,,0.00,Wunderground v.1.15,2013-01-19 07:40:00,
2013-01-18 23:50:00,41.2,4.1,30.22,ENE,60,0.0,0.0,21,0.00,,,0.00,Wunderground v.1.15,2013-01-19 07:50:00,